Hourly Data Report for November 28, 2018

VICTORIA UNIVERSITY CS
BRITISH COLUMBIA
Current Station Operator: ECCC - MSC

48°27'25.200" N
123°18'16.600" W
60.10 m
1018598
71783
WYJ

Download Data

Hourly Data (November 2018)
Hourly Data Report for November 28, 2018
TIME
LST
Temp Definition
°C
Dew Point Definition
°C
Rel Hum Definition
%
Precip. Amount Definition
mm

Wind Dir Definition
10's deg

Wind Spd Definition
km/h
Visibility Definition
km
Stn Press Definition
kPa
Hmdx Definition


Wind Chill Definition


Weather Definition


00:00 8.7 8.4 97 1.5 16 5   99.94     LegendNANA
01:00 8.7 8.3 98 1.0 15 3   99.95     LegendNANA
02:00 8.0 7.7 98 0.0 14 2   99.96     LegendNANA
03:00 7.3 7.0 98 0.0   0   99.99     LegendNANA
04:00 6.8 6.6 98 0.0 17 1   100.00     LegendNANA
05:00 6.2 5.9 99 0.0 21 3   99.97     LegendNANA
06:00 8.0 7.8 99 0.0   0   99.95     LegendNANA
07:00 8.2 8.0 99 0.0 0 1   99.93     LegendNANA
08:00 8.2 8.1 99 0.0 0 1   99.92     LegendNANA
09:00 8.3 8.2 99 0.5 15 3   99.94     LegendNANA
10:00 8.8 8.6 99 0.6 9 5   99.91     LegendNANA
11:00 9.0 8.7 98 0.0 12 3   99.86     LegendNANA
12:00 10.6 9.6 94 0.0 11 2   99.83     LegendNANA
13:00 9.6 8.5 92 0.0 8 4   99.78     LegendNANA
14:00 9.3 8.0 92 0.0 8 5   99.76     LegendNANA
15:00 9.4 8.2 92 0.0 4 3   99.76     LegendNANA
16:00 8.9 8.0 94 0.0 2 7   99.77     LegendNANA
17:00 8.7 7.9 95 0.0 36 5   99.78     LegendNANA
18:00 8.3 7.5 95 0.0 1 4   99.77     LegendNANA
19:00 8.0 7.5 97 0.0 33 1   99.80     LegendNANA
20:00 8.4 7.9 97 0.0 36 4   99.80     LegendNANA
21:00 8.4 7.8 96 0.0 36 5   99.83     LegendNANA
22:00 8.3 7.8 96 0.0 33 4   99.86     LegendNANA
23:00 8.2 7.6 96 0.0 34 5   99.84     LegendNANA

Notes on Data Quality.

Legend

  • E = Estimated
  • M = Missing
  • NA = Not Available*
  • [empty] = Indicates an unobserved value
Date modified: